Find Starlink 3306

NORAD ID: 50163 Int'l Des: 2021-125 Owner: SPXS Country: US Constellation: starlink operational
LEOCIRCULAR

实时位置

正在加载3D地球...

关于 Starlink 3306

正在加载描述...

即将过境

Passes for default location (London). Set your location on the main map for personalized predictions.

高度历史

Loading altitude history...

两行轨道根数

1 50163U 21125H 26122.93954898 -.00000349 00000-0 -38097-5 0 9994
2 50163 53.2198 355.5746 0001400 91.6501 268.4652 15.08831990244925
Epoch: May 2, 2026 • Age: 14 hours

当前状态

高度 554.6 km
速度 7.58 km/s
星下点 -42.14°S, 169.18°E
发射日期 Dec 18, 2021
运行时间 4.3 years
类型 internet

技术详情

分类 Payload
质量 290.00 kg
干质量 270.00 kg
总质量 290.00 kg
长度 0.20 m
直径 2.80 m
跨度 9.00 m
形状 Box + pan
制造商 SPXS
平台类型 Starlink
阶段状态 In Orbit
所有者/国家 SPXS/US

Most Searched